Weather History for Sisseton, SD

Change the Weather History Date:

Tuesday, July 2, 2013

  Actual Average Record
Temperature  
Mean Temperature 72 °F 70 °F  
Max Temperature 86 °F 81 °F 100 °F (1949)
Min Temperature 57 °F 59 °F 44 °F (1994)
Degree Days  
Heating Degree Days 0 1  
Month to date heating degree days 0 2  
Since 1 June heating degree days 69 64  
Since 1 July heating degree days 0 2  
Cooling Degree Days 7 6  
Month to date cooling degree days 13 11  
Year to date cooling degree days 155 128  
Since 1 June cooling degree days 130 105  
Growing Degree Days 22 (Base 50)    
Moisture  
Dew Point 54 °F    
Average Humidity 60    
Maximum Humidity 93    
Minimum Humidity 27    
Precipitation  
Precipitation 0.00 in 0.11 in 3.65 in (1903)
Month to date precipitation 0.00 0.22  
Year to date precipitation 14.92 10.94  
Sea Level Pressure  
Sea Level Pressure 30.07 in    
Wind  
Wind Speed 4 mph (North)    
Max Wind Speed 14 mph    
Max Gust Speed 16 mph    
T = Trace of Precipitation, MM = Missing Value Source: NWS Daily Summary

Daily Weather History Graph

Daily Weather History Graph

Search for Another Location

Airport:

Trip Planner

Search our weather history database for the weather conditions in past years. The results will help you decide how hot, cold, wet, or windy it might be!

Date:

Astronomy

Jul. 02, 2013 Rise Set
Actual Time 5:43 AM CDT 9:20 PM CDT
Civil Twilight 5:05 AM CDT 9:58 PM CDT
Nautical Twilight 4:14 AM CDT 10:48 PM CDT
Astronomical Twilight 3:07 AM CDT 11:56 PM CDT
Moon 1:55 AM CDT (7/2) 4:28 PM CDT (7/2)
Length of Visible Light 16h 53m
Length of Day
15h 37m
Waning Crescent, 26% of the Moon is Illuminated
Jul 2
Waning Crescent
Jul 8
New
Jul 15
First Quarter
Jul 22
Full
Jul 29
Last Quarter

Hourly Weather History & Observations

Time (CDT) Temp. Heat Index Dew Point Humidity Pressure Visibility Wind Dir Wind Speed Gust Speed Precip Events Conditions
12:56 AM 62.1 °F - 55.0 °F 78% 30.12 in - Calm Calm - N/A   Unknown
1:56 AM 60.1 °F - 54.0 °F 80% 30.12 in - Calm Calm - N/A   Unknown
2:56 AM 59.0 °F - 55.0 °F 87% 30.12 in - Calm Calm - N/A   Unknown
3:56 AM 57.9 °F - 55.0 °F 90% 30.11 in - SW 3.5 mph - N/A   Unknown
4:56 AM 57.0 °F - 54.0 °F 89% 30.12 in - ESE 4.6 mph - N/A   Unknown
5:56 AM 57.9 °F - 55.0 °F 90% 30.12 in - Calm Calm - N/A   Unknown
6:56 AM 64.0 °F - 57.0 °F 78% 30.12 in - WNW 3.5 mph - N/A   Unknown
7:56 AM 71.1 °F - 54.0 °F 55% 30.11 in - NW 6.9 mph - N/A   Unknown
8:56 AM 75.0 °F - 57.9 °F 55% 30.11 in - NNW 6.9 mph - N/A   Unknown
9:56 AM 78.1 °F - 57.0 °F 48% 30.11 in - North 5.8 mph - N/A   Unknown
10:56 AM 81.0 °F 81.0 °F 57.0 °F 44% 30.10 in - North 8.1 mph - N/A   Unknown
11:56 AM 82.0 °F 81.2 °F 53.1 °F 37% 30.10 in - Calm Calm - N/A   Unknown
12:56 PM 82.9 °F - 48.9 °F 31% 30.09 in - NNE 6.9 mph - N/A   Unknown
1:56 PM 84.9 °F - 46.0 °F 26% 30.08 in - NNE 8.1 mph - N/A   Unknown
2:56 PM 84.9 °F - 48.0 °F 28% 30.07 in - ESE 3.5 mph - N/A   Unknown
3:56 PM 86.0 °F - 48.9 °F 28% 30.05 in - North 8.1 mph - N/A   Unknown
4:56 PM 84.9 °F - 51.1 °F 31% 30.04 in - NE 10.4 mph - N/A   Unknown
5:56 PM 86.0 °F - 51.1 °F 30% 30.03 in - North 5.8 mph - N/A   Unknown
6:56 PM 82.9 °F - 51.1 °F 33% 30.01 in - NE 6.9 mph - N/A   Unknown
7:56 PM 81.0 °F 81.3 °F 59.0 °F 47% 30.00 in - Calm Calm - N/A   Unknown
8:56 PM 78.1 °F - 55.0 °F 45% 29.99 in - Calm Calm - N/A   Unknown
9:56 PM 69.1 °F - 63.0 °F 81% 30.01 in - Calm Calm - N/A   Unknown
10:56 PM 68.0 °F - 57.9 °F 70% 30.01 in - Calm Calm - N/A   Unknown
11:56 PM 64.0 °F - 57.9 °F 80% 30.01 in - Calm Calm - N/A   Unknown